Location: George Washington National Forest Helicopter Landing Site
(38.6463°N, 79.0851°W)
Time: 07:56:30
(UTC-04:00)

ISS - Visible Passes

Search period start: 19 August 2019 00:00
Search period end: 29 August 2019 00:00
Orbit: 410 x 420 km, 51.6° (Epoch: 19 August)

Date Brightness Start Highest point End Pass type
(mag) Time Alt. Az. Time Alt. Az. Time Alt. Az.
24 Aug -0.9 05:50:20 10° SSE 05:51:51 13° SE 05:53:21 10° E visible
26 Aug -2.5 05:47:35 10° SSW 05:50:40 36° SE 05:53:46 10° ENE visible
27 Aug -1.7 05:00:55 17° SSE 05:02:00 20° SE 05:04:32 10° E visible
28 Aug -0.7 04:14:21 10° ESE 04:14:21 10° ESE 04:14:22 10° ESE visible
28 Aug -3.7 05:47:14 17° WSW 05:49:39 70° NW 05:52:59 10° NE visible
